sat.trackr.live / text

‹ back to catalog

STARLINK-35262

NORAD 65847 · 2025-221AA

PAYLOAD ACTIVE UNKNOWN

§ Identity

Operator
Country
US
Launch date
2025-09-29
Launch site
AFWTR
Launch vehicle
Mass (kg)
RCS (m²)

Purposes: comms

External: N2YO · Heavens-Above · Gunter

§ Orbital elements

Epoch: 2026-05-25T02:04:29.699904Z

Period
94.11 min
Inclination
53.1582°
Eccentricity
0.0001214
Mean motion
15.30197137 rev/d
Perigee alt
474.4 km
Apogee alt
476.1 km
Semi-major
6,853.4 km
B*
3.9631e-4
RAAN
93.9438°
Arg perigee
97.9399°
Mean anomaly
262.1739°
Rev number
3,777

§ Raw data

STARLINK-352621 65847U 25221AA  26145.08645486  .00011396  00000+0  39631-3 0  99952 65847  53.1582  93.9438 0001214  97.9399 262.1739 15.30197137 37777

JSON: /api/v1/satellites/65847 · /tle

For live sub-satellite position, see the globe view (requires WebGL).

§ Visibility from observer

Set your observer location to see the next 7 days of passes ≥ 10°. The values pass through the URL so the page stays shareable.

No JS? Fill the form by hand. The geolocation button needs JavaScript.